Location: Borealis Mine
(38.3824°N, 118.7610°W)
Time: 17:44:04
(UTC+00:00)

Cosmos 1459 Rocket - Pass Details

Date: 18 September 2020
Orbit: 936 x 1001 km, 83.0° (Epoch: 19 October)

Event Time Altitude Azimuth Distance (km) Brightness Sun altitude
Rises 12:42:12 0° 354° (N) 3,630 7.1 -12.0°
Reaches altitude 10° 12:44:43 10° 355° (N) 2,674 6.4 -11.5°
Maximum altitude 12:50:49 80° 83° (E) 956 4.1 -10.4°
Drops below altitude 10° 12:56:50 10° 171° (S) 2,638 6.3 -9.2°
Sets 12:59:18 0° 172° (S) 3,578 7.0 -8.7°
